[[{"header":{"parameterUnit":"m.s-1","parameterCategory":2,"la1":30.2991,"la2":30.254,"lo1":-89.0895,"lo2":-89.0444,"dy":0.0017,"dx":0.0017,"nx":28,"ny":28,"refTime":"2024-09-02T03:00:00:Z","depth":"0","parameterNumber":2,"parameterNumberName":"U-component_of_CURRENTS"},"data":[0,0,0,0,0,0,0,0,0,0,0,0,0,0,0,0,0,0,0,0,0,0,0,0,0,0,0,0,0,0,0,0,0,0,0,0,0,0,0,0,0,0,0,0,0,0,0,0,0,0,0,0,0,0,0,0,0,0,-0.304,-0.304,0,-0.3043,-0.3043,-0.3043,-0.3009,-0.3009,-0.3008,-0.3007,-0.2971,-0.2971,-0.297,0,0,0,0,0,0,0,0,0,0,0,0,0,-0.2977,-0.2978,-0.304,-0.304,-0.3041,-0.3043,-0.3043,-0.3043,-0.3009,-0.3009,-0.3008,-0.3007,-0.2971,-0.2971,-0.297,0,0,0,0,0,0,0,0,0,0,0,0,0,-0.2992,-0.2978,-0.304,-0.3026,-0.3025,-0.3043,-0.3043,-0.3043,-0.301,-0.3009,-0.3008,-0.3007,-0.2971,-0.2971,-0.297,-0.2988,0,0,-0.2969,-0.2969,0,0,0,0,0,0,0,0,-0.2991,-0.2994,-0.3028,-0.3027,-0.3026,-0.3027,-0.3008,-0.3023,-0.301,-0.3013,-0.3007,-0.3006,-0.2989,-0.2987,-0.2986,-0.2986,-0.2984,-0.2969,-0.2968,-0.2968,-0.2968,0,0,0,0,0,0,0,-0.299,-0.2994,-0.3039,-0.3029,-0.3027,-0.301,-0.3011,-0.301,-0.3004,-0.3012,-0.3011,-0.3016,-0.2987,-0.2987,-0.2985,-0.2984,-0.2969,-0.2968,-0.2968,-0.2968,-0.3003,-0.3004,0,0,0,0,0,0,-0.2998,-0.2993,-0.3039,-0.3039,-0.3009,-0.3013,-0.3014,-0.3026,-0.3004,-0.3001,-0.3017,-0.3014,-0.2988,-0.2986,-0.2984,-0.2989,-0.2968,-0.2968,-0.2968,-0.3002,-0.3003,-0.3005,0,0,0,0,0,0,-0.2997,-0.3003,-0.3039,-0.3017,-0.3021,-0.3015,-0.3029,-0.3026,-0.3023,-0.3009,-0.3004,-0.3016,-0.2987,-0.2984,-0.2986,-0.2987,-0.2968,-0.2967,-0.3,-0.3002,-0.3004,-0.3007,0,0,0,0,0,0,-0.2995,-0.3002,-0.3008,-0.3019,-0.3023,-0.3058,-0.303,-0.3027,-0.3029,-0.3026,-0.3006,-0.3002,-0.2986,-0.2987,-0.2985,-0.2986,-0.2967,-0.2999,-0.3001,-0.3003,-0.3006,-0.3009,-0.3012,0,0,0,0,0,-0.2993,-0.3007,-0.3008,-0.3013,-0.3033,-0.306,-0.306,-0.305,-0.303,-0.304,-0.3022,-0.3002,-0.3,-0.2987,-0.2985,-0.2986,-0.2998,-0.3001,-0.3003,-0.3004,-0.3009,-0.3012,0,0,0,0,0,0,-0.2974,-0.3006,-0.3007,-0.3027,-0.3047,-0.3055,-0.3057,-0.3054,-0.3048,-0.3037,-0.3015,-0.3011,-0.3016,-0.3009,-0.2995,-0.3008,-0.2998,-0.3,-0.2999,-0.3003,-0.3006,-0.2981,-0.2966,0,0,0,0,0,-0.2977,-0.2995,-0.3025,-0.3037,-0.3049,-0.3054,-0.3059,-0.306,-0.306,-0.3055,-0.3041,-0.303,-0.3028,-0.3021,-0.3023,-0.3026,-0.2969,-0.3029,-0.3033,-0.3035,-0.3017,-0.2943,-0.2935,-0.3014,-0.3014,-0.3014,0,0,-0.2966,-0.2989,-0.2995,-0.3034,-0.3041,-0.3063,-0.3053,-0.307,-0.3078,-0.3053,-0.3049,-0.3043,-0.3036,-0.3039,-0.304,-0.3029,-0.2983,-0.3039,-0.304,-0.302,-0.2944,-0.2936,-0.2928,-0.3016,-0.3015,-0.3015,0,0,-0.296,-0.2983,-0.2997,-0.3024,-0.3054,-0.3067,-0.3075,-0.3092,-0.3089,-0.3102,-0.3079,-0.3068,-0.3077,-0.3055,-0.3049,-0.3074,-0.3008,-0.3088,-0.307,-0.2999,-0.2991,-0.2982,-0.2886,-0.287,-0.3081,-0.3081,-0.3081,0,-0.2935,-0.2962,-0.3003,-0.303,-0.3037,-0.307,-0.3079,-0.31,-0.311,-0.3092,-0.3105,-0.3076,-0.3079,-0.3047,-0.3063,-0.3075,-0.3015,-0.3051,-0.2998,-0.2989,-0.298,-0.2884,-0.2865,-0.3082,-0.3082,-0.3082,-0.3082,0,-0.2941,-0.2963,-0.2975,-0.3016,-0.3044,-0.3055,-0.3099,-0.3109,-0.3113,-0.3113,-0.3093,-0.3092,-0.3061,-0.3076,-0.308,-0.3027,-0.2997,-0.3011,-0.2976,-0.2971,-0.2871,-0.2852,-0.3082,-0.3082,-0.3082,-0.3082,0,0,-0.2842,-0.2951,-0.2946,-0.2941,-0.3028,-0.3022,-0.3074,-0.3082,-0.3043,-0.3088,-0.3016,-0.306,-0.3041,-0.3034,-0.3029,-0.2981,-0.2883,-0.2973,-0.2969,-0.2855,-0.2692,-0.2645,-0.2619,-0.2881,-0.2878,-0.2876,-0.264,0,-0.2805,-0.2831,-0.2914,-0.2908,-0.2905,-0.2975,-0.2992,-0.3014,-0.3026,-0.2975,-0.299,-0.2942,-0.3033,-0.2986,-0.2969,-0.2902,-0.2834,-0.2943,-0.2733,-0.2726,-0.2666,-0.2596,-0.2517,-0.2298,-0.262,-0.2617,-0.2615,0,-0.2748,-0.2769,-0.278,-0.2797,-0.2798,-0.2818,-0.2795,-0.2817,-0.2819,-0.2817,-0.2819,-0.2824,-0.2793,-0.2845,-0.2753,-0.2817,-0.2754,-0.2706,-0.2696,-0.2633,-0.2643,-0.236,-0.2249,-0.2259,-0.2584,-0.2586,-0.2588,0,-0.2586,-0.2641,-0.263,-0.2648,-0.2711,-0.2705,-0.2719,-0.2748,-0.273,-0.2697,-0.2662,-0.2658,-0.2616,-0.258,-0.2585,-0.2634,-0.2439,-0.2487,-0.2374,-0.2369,-0.2249,-0.2238,-0.2099,-0.2367,-0.2367,-0.2368,-0.2369,0,-0.2484,-0.2452,-0.2545,-0.253,-0.2465,-0.2557,-0.2491,-0.2512,-0.2517,-0.2469,-0.2554,-0.2501,-0.2548,-0.2494,-0.2488,-0.2377,-0.237,-0.233,-0.2295,-0.225,-0.2243,-0.2207,-0.2249,-0.2359,-0.2361,-0.2363,-0.2364,0,-0.2311,-0.239,-0.235,-0.2396,-0.24,-0.2341,-0.237,-0.2325,-0.2359,-0.2295,-0.2283,-0.2336,-0.2281,-0.2309,-0.2208,-0.2227,-0.2081,-0.208,-0.2022,-0.1986,-0.1911,-0.1956,-0.173,-0.1686,-0.1885,-0.1882,-0.188,0,-0.2227,-0.2203,-0.2221,-0.2202,-0.2229,-0.2186,-0.2173,-0.2222,-0.2204,-0.2199,-0.215,-0.211,-0.2083,-0.1951,-0.1937,-0.1854,-0.1914,-0.1736,-0.1831,-0.1853,-0.1878,-0.191,-0.1894,-0.1656,-0.1652,-0.1649,-0.1647,0,-0.2047,-0.2068,-0.2055,-0.2022,-0.2005,-0.1971,-0.1965,-0.1936,-0.1994,-0.1966,-0.1922,-0.1893,-0.1813,-0.1728,-0.1663,-0.1624,-0.1705,-0.1666,-0.1688,-0.1673,-0.1691,-0.1651,-0.1866,-0.1618,-0.1621,-0.1623,-0.1625,-0.1626,-0.19,-0.1854,-0.1862,-0.1816,-0.18,-0.1766,-0.1698,-0.1732,-0.1685,-0.1655,-0.1696,-0.1634,-0.1604,-0.1508,-0.1469,-0.1398,-0.1453,-0.1389,-0.1429,-0.1449,-0.1448,-0.1598,-0.1336,-0.1337,-0.1339,-0.1339,-0.134,0,-0.1708,-0.17,-0.1659,-0.1613,-0.1545,-0.1593,-0.1561,-0.1503,-0.1435,-0.1466,-0.1428,-0.1388,-0.1311,-0.1313,-0.1251,-0.1201,-0.1196,-0.1189,-0.1225,-0.1212,-0.1313,-0.1353,-0.1084,-0.1084,-0.1084,-0.1084,-0.1084,-0.1084,-0.1612,-0.153,-0.1528,-0.1378,-0.1351,-0.1228,-0.1189,-0.1151,-0.1148,-0.1101,-0.1105,-0.1132,-0.1152,-0.1238,-0.1186,-0.1137,-0.1143,-0.1074,-0.1122,-0.1243,-0.1267,-0.1289,-0.1336,-0.1067,-0.1067,-0.0972,-0.0971,-0.0971]},{"header":{"parameterUnit":"m.s-1","parameterCategory":2,"la1":30.2991,"la2":30.254,"lo1":-89.0895,"lo2":-89.0444,"dy":0.0017,"dx":0.0017,"nx":28,"ny":28,"refTime":"2024-09-02T03:00:00:Z","depth":"0","parameterNumber":3,"parameterNumberName":"V-component_of_CURRENTS"},"data":[0,0,0,0,0,0,0,0,0,0,0,0,0,0,0,0,0,0,0,0,0,0,0,0,0,0,0,0,0,0,0,0,0,0,0,0,0,0,0,0,0,0,0,0,0,0,0,0,0,0,0,0,0,0,0,0,0,0,-0.0192,-0.0191,0,-0.009,-0.0088,-0.0087,-0.0028,-0.0028,-0.0028,-0.0028,0.0129,0.0133,0.0137,0,0,0,0,0,0,0,0,0,0,0,0,0,-0.0268,-0.0267,-0.0192,-0.019,-0.0189,-0.009,-0.0088,-0.0087,-0.0028,-0.0028,-0.0028,-0.0028,0.0127,0.0132,0.0137,0,0,0,0,0,0,0,0,0,0,0,0,0,-0.0206,-0.0267,-0.0192,-0.0149,-0.0144,-0.009,-0.0088,-0.0086,-0.0028,-0.0028,-0.0028,-0.0028,0.0126,0.0132,0.0138,0.0171,0,0,0.0156,0.0159,0,0,0,0,0,0,0,0,-0.021,-0.0204,-0.0156,-0.0152,-0.0146,-0.0072,-0.0058,0.0002,-0.0028,-0.0071,-0.0028,-0.0027,0.0066,0.0077,0.0096,0.0178,0.0185,0.0157,0.016,0.0163,0.0165,0,0,0,0,0,0,0,-0.0214,-0.0207,-0.015,-0.0155,-0.0149,-0.0111,-0.0103,-0.0046,-0.0003,-0.0067,-0.0063,-0.0053,0.0069,0.009,0.01,0.0187,0.0156,0.0162,0.0166,0.0168,0.0324,0.0324,0,0,0,0,0,0,-0.0233,-0.0212,-0.0154,-0.0147,-0.0179,-0.011,-0.0101,-0.0095,-0.0005,0.0008,-0.0054,-0.0051,0.008,0.0093,0.0106,0.0152,0.0163,0.0168,0.0172,0.0323,0.0324,0.0325,0,0,0,0,0,0,-0.0235,-0.0229,-0.0158,-0.0178,-0.0166,-0.011,-0.0104,-0.0093,-0.0073,0.0005,0.0019,-0.0044,0.008,0.0098,0.015,0.0158,0.0171,0.0177,0.0323,0.0324,0.0324,0.0243,0,0,0,0,0,0,-0.0237,-0.023,-0.0238,-0.0179,-0.0166,-0.0133,-0.0104,-0.0092,-0.0068,-0.0063,0.0018,0.0033,0.0082,0.014,0.0156,0.0167,0.0181,0.0322,0.0323,0.0324,0.0245,0.024,0.0237,0,0,0,0,0,-0.0241,-0.0252,-0.0239,-0.0232,-0.0176,-0.0133,-0.0123,-0.0081,-0.0068,-0.0061,-0.0009,0.003,0.0158,0.0145,0.0164,0.0176,0.0322,0.0323,0.0324,0.0246,0.0241,0.0237,0,0,0,0,0,0,-0.0292,-0.0246,-0.023,-0.0228,-0.0187,-0.0124,-0.0117,-0.0087,-0.0041,-0.0037,0.0034,0.0052,0.0101,0.0151,0.0135,0.0226,0.0249,0.0253,0.0183,0.0179,0.0176,0.0163,0.0186,0,0,0,0,0,-0.0308,-0.0305,-0.025,-0.0251,-0.0232,-0.0176,-0.0156,-0.0125,-0.0075,-0.0055,-0.0001,0.0062,0.0122,0.0157,0.0212,0.0261,0.0288,0.0284,0.028,0.0277,0.028,0.0316,0.0315,0.0328,0.0328,0.0328,0,0,-0.0328,-0.0304,-0.0302,-0.0262,-0.0227,-0.0206,-0.0163,-0.0135,-0.0114,-0.0044,-0.0007,0.0047,0.013,0.018,0.0209,0.0223,0.0284,0.0278,0.0274,0.028,0.0317,0.0315,0.0314,0.0329,0.0329,0.0329,0,0,-0.0368,-0.0344,-0.0354,-0.0322,-0.0277,-0.0236,-0.0232,-0.0171,-0.014,-0.0098,-0.0041,0.0014,0.01,0.0161,0.0204,0.0216,0.0256,0.0237,0.0216,0.0249,0.0248,0.0247,0.0256,0.0256,0.0241,0.0241,0.0241,0,-0.0397,-0.0398,-0.035,-0.0345,-0.0324,-0.0254,-0.025,-0.0205,-0.0138,-0.0109,-0.0097,0.0028,0.0093,0.0168,0.0175,0.0207,0.0222,0.0221,0.0241,0.0241,0.0242,0.0251,0.0253,0.0237,0.0238,0.0238,0.0239,0,-0.0438,-0.0434,-0.0434,-0.0406,-0.0375,-0.036,-0.0289,-0.0256,-0.0213,-0.0165,-0.0096,-0.0016,0.0061,0.0093,0.0142,0.019,0.0195,0.0222,0.0243,0.0235,0.0246,0.0249,0.0232,0.0233,0.0234,0.0235,0,0,-0.0511,-0.0473,-0.0473,-0.0464,-0.0404,-0.038,-0.034,-0.0278,-0.0249,-0.0185,-0.015,-0.0042,-0.0001,0.0052,0.0119,0.0159,0.0171,0.0189,0.0192,0.018,0.0221,0.0269,0.0277,0.0193,0.0194,0.0195,0.0217,0,-0.0558,-0.0568,-0.0531,-0.0526,-0.0516,-0.0439,-0.0405,-0.0338,-0.0277,-0.0226,-0.0132,-0.0075,-0.0014,0.0019,0.0068,0.015,0.018,0.0161,0.0248,0.025,0.028,0.0283,0.0314,0.0342,0.0221,0.0222,0.0222,0,-0.0613,-0.0605,-0.062,-0.057,-0.0558,-0.0544,-0.0471,-0.0431,-0.0333,-0.0285,-0.0213,-0.0143,-0.0057,-0.0018,0.0101,0.0082,0.0145,0.0201,0.0203,0.0283,0.0306,0.034,0.0353,0.0458,0.0228,0.0227,0.0227,0,-0.0684,-0.0664,-0.0679,-0.0664,-0.0602,-0.0587,-0.0547,-0.0456,-0.0412,-0.0329,-0.0296,-0.0194,-0.0137,-0.005,0.0087,0.0084,0.0204,0.0213,0.0311,0.0313,0.0379,0.0387,0.0495,0.0285,0.0285,0.0285,0.0285,0,-0.075,-0.0753,-0.0715,-0.0719,-0.0709,-0.0649,-0.0623,-0.0562,-0.0485,-0.0434,-0.0339,-0.0278,-0.0141,-0.0042,0.0058,0.0203,0.0183,0.031,0.0332,0.035,0.0355,0.0483,0.0519,0.0286,0.0286,0.0286,0.0286,0,-0.0821,-0.0805,-0.0807,-0.0762,-0.0746,-0.0739,-0.0668,-0.064,-0.0568,-0.0504,-0.0482,-0.0342,-0.0208,-0.0068,0.0085,0.0177,0.0367,0.0355,0.036,0.0384,0.0562,0.0591,0.0707,0.077,0.0443,0.0445,0.0446,0,-0.0853,-0.0868,-0.0844,-0.0837,-0.082,-0.0794,-0.0766,-0.0689,-0.0653,-0.0528,-0.0502,-0.0361,-0.0223,0.001,0.0187,0.0356,0.0439,0.0479,0.0495,0.0585,0.0634,0.064,0.0684,0.0532,0.0534,0.0535,0.0536,0,-0.0896,-0.0898,-0.0896,-0.0887,-0.0874,-0.0849,-0.0807,-0.0787,-0.0689,-0.0619,-0.049,-0.0376,-0.0132,0.0106,0.033,0.0427,0.0555,0.0515,0.0617,0.0727,0.0732,0.0798,0.0481,0.055,0.0548,0.0547,0.0547,0.0546,-0.0912,-0.0926,-0.0926,-0.0914,-0.0904,-0.0884,-0.0856,-0.0795,-0.0724,-0.057,-0.0482,-0.0248,0.0053,0.0385,0.0494,0.0729,0.0682,0.0797,0.0824,0.082,0.0898,0.0604,0.07,0.07,0.07,0.0699,0.0699,0,-0.0912,-0.0926,-0.0933,-0.0926,-0.0923,-0.0906,-0.0859,-0.0806,-0.0707,-0.0515,-0.0357,0.0052,0.035,0.0618,0.0924,0.1039,0.1049,0.1088,0.1106,0.1137,0.0891,0.0916,0.1054,0.1054,0.1054,0.1054,0.1054,0.1054,-0.0906,-0.0921,-0.093,-0.0929,-0.0925,-0.0898,-0.0865,-0.0764,-0.0612,-0.0282,0.0011,0.0239,0.06,0.1034,0.1306,0.1317,0.1413,0.1386,0.1444,0.128,0.1254,0.123,0.1265,0.1474,0.1474,0.1683,0.1685,0.1687]}],[{"header":{"parameterUnit":"m.s-1","parameterCategory":2,"la1":30.2991,"la2":30.254,"lo1":-89.0895,"lo2":-89.0444,"dy":0.0017,"dx":0.0017,"nx":28,"ny":28,"refTime":"2024-09-02T03:00:00:Z","depth":"2","parameterNumber":2,"parameterNumberName":"U-component_of_CURRENTS"},"data":[0,0,0,0,0,0,0,0,0,0,0,0,0,0,0,0,0,0,0,0,0,0,0,0,0,0,0,0,0,0,0,0,0,0,0,0,0,0,0,0,0,0,0,0,0,0,0,0,0,0,0,0,0,0,0,0,0,0,-0.2454,-0.2454,0,-0.248,-0.248,-0.248,-0.2473,-0.2473,-0.2473,-0.2472,-0.2494,-0.2495,-0.2496,0,0,0,0,0,0,0,0,0,0,0,0,0,-0.2368,-0.2369,-0.2454,-0.2454,-0.2455,-0.248,-0.248,-0.248,-0.2473,-0.2473,-0.2472,-0.2472,-0.2494,-0.2495,-0.2496,0,0,0,0,0,0,0,0,0,0,0,0,0,-0.2399,-0.237,-0.2453,-0.2456,-0.2456,-0.248,-0.248,-0.248,-0.2473,-0.2473,-0.2472,-0.2472,-0.2493,-0.2495,-0.2496,-0.2514,0,0,-0.25,-0.2501,0,0,0,0,0,0,0,0,-0.2397,-0.2402,-0.2455,-0.2456,-0.2456,-0.2474,-0.2458,-0.2492,-0.2473,-0.2465,-0.2472,-0.2472,-0.2489,-0.2491,-0.2494,-0.2515,-0.2516,-0.25,-0.2501,-0.2502,-0.2502,0,0,0,0,0,0,0,-0.2395,-0.24,-0.2462,-0.2456,-0.2457,-0.2445,-0.2449,-0.2464,-0.2478,-0.2465,-0.2466,-0.2472,-0.2489,-0.2492,-0.2494,-0.2516,-0.25,-0.2501,-0.2502,-0.2503,-0.2597,-0.2599,0,0,0,0,0,0,-0.2398,-0.2399,-0.2461,-0.2463,-0.2427,-0.2448,-0.2452,-0.2467,-0.2478,-0.2479,-0.2472,-0.2472,-0.249,-0.2493,-0.2495,-0.254,-0.2502,-0.2503,-0.2504,-0.2596,-0.2598,-0.26,0,0,0,0,0,0,-0.2397,-0.2404,-0.246,-0.2432,-0.2439,-0.245,-0.2467,-0.2468,-0.2481,-0.2483,-0.2484,-0.2485,-0.249,-0.2493,-0.2511,-0.254,-0.2503,-0.2505,-0.2594,-0.2596,-0.2599,-0.2615,0,0,0,0,0,0,-0.2394,-0.2403,-0.2416,-0.2433,-0.2441,-0.2485,-0.2468,-0.2469,-0.2486,-0.2485,-0.2495,-0.2495,-0.249,-0.2509,-0.2512,-0.2541,-0.2506,-0.2592,-0.2595,-0.2598,-0.2612,-0.2618,-0.2623,0,0,0,0,0,-0.2391,-0.2411,-0.2416,-0.2424,-0.2457,-0.2486,-0.249,-0.2493,-0.2487,-0.2501,-0.2499,-0.2496,-0.2533,-0.2511,-0.2514,-0.2544,-0.259,-0.2594,-0.2598,-0.261,-0.2617,-0.2622,0,0,0,0,0,0,-0.2386,-0.2414,-0.2419,-0.2448,-0.2471,-0.2486,-0.2495,-0.2503,-0.2513,-0.2509,-0.2506,-0.2508,-0.2538,-0.2543,-0.2519,-0.2585,-0.2566,-0.2571,-0.2574,-0.2581,-0.2586,-0.2547,-0.2507,0,0,0,0,0,-0.2391,-0.2408,-0.2437,-0.246,-0.2471,-0.2485,-0.2497,-0.2506,-0.2517,-0.2521,-0.2533,-0.2545,-0.2558,-0.2568,-0.2584,-0.2613,-0.2556,-0.2641,-0.2646,-0.265,-0.2624,-0.2553,-0.2547,-0.2612,-0.2612,-0.2612,0,0,-0.2385,-0.2411,-0.2415,-0.2459,-0.247,-0.2493,-0.2491,-0.2515,-0.2532,-0.2522,-0.255,-0.2563,-0.257,-0.2601,-0.2617,-0.2607,-0.2607,-0.2655,-0.2658,-0.2629,-0.2555,-0.2548,-0.2542,-0.2615,-0.2615,-0.2614,0,0,-0.2388,-0.2416,-0.2427,-0.2456,-0.2491,-0.2503,-0.2515,-0.2546,-0.2556,-0.2589,-0.2583,-0.2591,-0.2642,-0.2628,-0.2631,-0.2673,-0.2635,-0.2719,-0.271,-0.2643,-0.2635,-0.2627,-0.2552,-0.2537,-0.2722,-0.2722,-0.2722,0,-0.2371,-0.2407,-0.2435,-0.2467,-0.2479,-0.251,-0.2522,-0.2549,-0.2585,-0.2583,-0.2603,-0.2627,-0.2638,-0.263,-0.2658,-0.2677,-0.264,-0.2682,-0.2643,-0.2634,-0.2626,-0.2551,-0.2534,-0.2723,-0.2723,-0.2723,-0.2723,0,-0.2388,-0.2419,-0.2432,-0.2474,-0.2497,-0.2517,-0.2554,-0.2581,-0.2601,-0.2617,-0.263,-0.2636,-0.2637,-0.2669,-0.268,-0.2653,-0.2645,-0.2652,-0.2613,-0.2619,-0.2541,-0.2524,-0.2725,-0.2725,-0.2724,-0.2724,0,0,-0.2318,-0.2415,-0.2421,-0.2421,-0.2498,-0.2497,-0.2546,-0.2564,-0.2549,-0.2612,-0.2575,-0.263,-0.263,-0.2632,-0.2647,-0.2607,-0.2531,-0.2622,-0.2618,-0.2521,-0.2381,-0.2336,-0.2312,-0.2542,-0.2539,-0.2537,-0.2349,0,-0.2304,-0.2345,-0.2411,-0.2422,-0.2422,-0.2479,-0.2503,-0.2532,-0.2554,-0.2539,-0.2553,-0.2539,-0.262,-0.2602,-0.2586,-0.2544,-0.2487,-0.2581,-0.2411,-0.2404,-0.2342,-0.2291,-0.2157,-0.1976,-0.2332,-0.2329,-0.2327,0,-0.2277,-0.2308,-0.2327,-0.235,-0.2353,-0.2379,-0.2372,-0.24,-0.242,-0.2432,-0.2446,-0.2459,-0.2438,-0.2479,-0.2405,-0.2473,-0.2425,-0.2388,-0.2379,-0.231,-0.2326,-0.203,-0.193,-0.2297,-0.2299,-0.2301,-0.2303,0,-0.2158,-0.2224,-0.2224,-0.2245,-0.2303,-0.2308,-0.2326,-0.2361,-0.2355,-0.2347,-0.233,-0.2332,-0.2302,-0.2269,-0.2273,-0.2322,-0.2154,-0.2196,-0.2095,-0.2091,-0.1924,-0.191,-0.2081,-0.2081,-0.2082,-0.2082,-0.2083,0,-0.2093,-0.2083,-0.2168,-0.2168,-0.2133,-0.2206,-0.217,-0.2198,-0.2214,-0.2184,-0.2257,-0.2216,-0.2252,-0.2203,-0.2197,-0.2099,-0.2092,-0.2053,-0.2026,-0.1932,-0.1922,-0.2167,-0.2179,-0.2075,-0.2077,-0.2078,-0.2079,0,-0.1961,-0.2034,-0.2014,-0.2072,-0.2081,-0.2048,-0.2083,-0.206,-0.2102,-0.2057,-0.2051,-0.2096,-0.2044,-0.2059,-0.1968,-0.1976,-0.1886,-0.1842,-0.1736,-0.1701,-0.1881,-0.1897,-0.1679,-0.1676,-0.1673,-0.1671,-0.1669,0,-0.1899,-0.1886,-0.1918,-0.1909,-0.1942,-0.1927,-0.1925,-0.1983,-0.1973,-0.1981,-0.1942,-0.1909,-0.1875,-0.1755,-0.1723,-0.164,-0.1749,-0.148,-0.1543,-0.1836,-0.1832,-0.1854,-0.1873,-0.1323,-0.1318,-0.1315,-0.1312,0,-0.1761,-0.1781,-0.1778,-0.1764,-0.1762,-0.1745,-0.1756,-0.1742,-0.1803,-0.1783,-0.1746,-0.1712,-0.163,-0.1503,-0.1435,-0.1389,-0.1497,-0.1399,-0.1668,-0.1477,-0.1493,-0.1494,-0.1525,-0.1277,-0.1281,-0.1283,-0.1285,-0.1286,-0.1646,-0.1609,-0.1617,-0.1589,-0.1588,-0.1569,-0.152,-0.1557,-0.1523,-0.1492,-0.153,-0.1435,-0.1419,-0.1238,-0.1169,-0.1128,-0.1239,-0.1205,-0.1219,-0.1236,-0.126,-0.1273,-0.1018,-0.102,-0.1022,-0.1023,-0.1024,0,-0.1485,-0.1474,-0.1445,-0.1413,-0.1363,-0.1414,-0.1401,-0.1348,-0.129,-0.1283,-0.1236,-0.1071,-0.0989,-0.0983,-0.0858,-0.0847,-0.0864,-0.0824,-0.0849,-0.0881,-0.0911,-0.0922,-0.0588,-0.0587,-0.0586,-0.0585,0,0,-0.1401,-0.1326,-0.1321,-0.12,-0.1186,-0.1084,-0.1058,-0.1017,-0.0984,-0.089,-0.0836,-0.0902,-0.092,-0.0745,-0.0712,-0.0624,-0.0748,-0.0593,-0.0936,-0.0994,-0.1022,-0.1115,-0.1167,0,0,0,0,0]},{"header":{"parameterUnit":"m.s-1","parameterCategory":2,"la1":30.2991,"la2":30.254,"lo1":-89.0895,"lo2":-89.0444,"dy":0.0017,"dx":0.0017,"nx":28,"ny":28,"refTime":"2024-09-02T03:00:00:Z","depth":"2","parameterNumber":3,"parameterNumberName":"V-component_of_CURRENTS"},"data":[0,0,0,0,0,0,0,0,0,0,0,0,0,0,0,0,0,0,0,0,0,0,0,0,0,0,0,0,0,0,0,0,0,0,0,0,0,0,0,0,0,0,0,0,0,0,0,0,0,0,0,0,0,0,0,0,0,0,-0.0295,-0.0294,0,-0.0222,-0.0221,-0.022,-0.0171,-0.017,-0.017,-0.017,-0.0025,-0.0022,-0.0018,0,0,0,0,0,0,0,0,0,0,0,0,0,-0.0335,-0.0335,-0.0295,-0.0294,-0.0293,-0.0222,-0.0221,-0.022,-0.0171,-0.017,-0.017,-0.0169,-0.0026,-0.0022,-0.0018,0,0,0,0,0,0,0,0,0,0,0,0,0,-0.0296,-0.0335,-0.0295,-0.026,-0.0256,-0.0222,-0.0221,-0.022,-0.0171,-0.017,-0.017,-0.0169,-0.0028,-0.0022,-0.0017,0.0004,0,0,-0.0001,0.0001,0,0,0,0,0,0,0,0,-0.0298,-0.0294,-0.0266,-0.0262,-0.0258,-0.0205,-0.0182,-0.0141,-0.0171,-0.0203,-0.017,-0.0169,-0.0079,-0.0069,-0.0058,0.0011,0.0017,-0.0001,0.0002,0.0005,0.0006,0,0,0,0,0,0,0,-0.0301,-0.0297,-0.0266,-0.0265,-0.026,-0.0228,-0.0222,-0.0174,-0.0144,-0.02,-0.0197,-0.0188,-0.0076,-0.0063,-0.0054,0.0019,-0.0001,0.0004,0.0007,0.0009,0.0137,0.0138,0,0,0,0,0,0,-0.0313,-0.03,-0.0269,-0.0264,-0.0277,-0.0228,-0.0222,-0.0222,-0.0146,-0.0134,-0.0189,-0.0186,-0.0073,-0.006,-0.0049,-0.0003,0.0005,0.001,0.0013,0.0137,0.0137,0.0138,0,0,0,0,0,0,-0.0315,-0.0312,-0.0272,-0.0279,-0.0272,-0.0228,-0.0229,-0.0221,-0.0204,-0.0138,-0.0125,-0.0179,-0.0072,-0.0056,-0.0015,0.0002,0.0012,0.0017,0.0137,0.0137,0.0138,0.0078,0,0,0,0,0,0,-0.0316,-0.0313,-0.0321,-0.0281,-0.0272,-0.0257,-0.023,-0.022,-0.02,-0.0196,-0.0125,-0.0112,-0.007,-0.0024,-0.001,0.001,0.0021,0.0136,0.0137,0.0137,0.008,0.0077,0.0074,0,0,0,0,0,-0.0318,-0.0333,-0.0322,-0.0318,-0.0284,-0.0257,-0.025,-0.0216,-0.02,-0.0198,-0.0156,-0.0114,-0.001,-0.002,-0.0004,0.0018,0.0136,0.0137,0.0137,0.0081,0.0077,0.0074,0,0,0,0,0,0,-0.0357,-0.0328,-0.0315,-0.0322,-0.0293,-0.0249,-0.0245,-0.0219,-0.0185,-0.0179,-0.0117,-0.0101,-0.0057,-0.0015,-0.0027,0.0057,0.0074,0.0077,0.0026,0.0022,0.0019,0.0011,0.0025,0,0,0,0,0,-0.037,-0.0373,-0.0336,-0.0342,-0.0329,-0.0287,-0.0272,-0.0248,-0.0211,-0.0195,-0.0147,-0.0092,-0.0043,-0.001,0.0035,0.0079,0.0109,0.0106,0.0103,0.01,0.0105,0.015,0.0151,0.014,0.014,0.014,0,0,-0.0385,-0.0371,-0.0372,-0.035,-0.0325,-0.0314,-0.0277,-0.0258,-0.0243,-0.0183,-0.0152,-0.0105,-0.0037,0.0007,0.0033,0.0047,0.0117,0.0101,0.0098,0.0104,0.0151,0.0152,0.0153,0.014,0.014,0.014,0,0,-0.042,-0.0406,-0.0419,-0.0397,-0.0365,-0.0337,-0.0333,-0.0288,-0.0263,-0.0232,-0.0181,-0.0133,-0.006,-0.0007,0.003,0.0039,0.0092,0.0064,0.0053,0.0096,0.0098,0.0099,0.0121,0.0125,0.0071,0.007,0.007,0,-0.0442,-0.045,-0.0418,-0.0419,-0.0402,-0.035,-0.035,-0.0318,-0.0266,-0.0237,-0.0231,-0.0119,-0.0068,0.0005,0.0009,0.0033,0.006,0.0058,0.0091,0.0094,0.0096,0.0119,0.0124,0.0068,0.0068,0.0068,0.0068,0,-0.0481,-0.0481,-0.0485,-0.0469,-0.0447,-0.0439,-0.0387,-0.036,-0.0324,-0.0283,-0.0218,-0.0156,-0.0084,-0.0056,-0.002,0.0039,0.0052,0.0073,0.0095,0.0093,0.0118,0.0124,0.0064,0.0065,0.0065,0.0066,0,0,-0.0543,-0.0519,-0.0519,-0.0512,-0.0471,-0.0454,-0.0425,-0.0375,-0.0344,-0.0293,-0.0251,-0.0167,-0.0124,-0.0079,-0.0019,0.0026,0.0058,0.0058,0.0061,0.007,0.0143,0.0174,0.0184,0.0087,0.0088,0.0089,0.0146,0,-0.0582,-0.0596,-0.0569,-0.0567,-0.0563,-0.0502,-0.0474,-0.0418,-0.0366,-0.0314,-0.0233,-0.0177,-0.0133,-0.0097,-0.0046,0.0036,0.0076,0.004,0.0153,0.0156,0.0176,0.0193,0.017,0.0222,0.0152,0.0154,0.0154,0,-0.0632,-0.0628,-0.0643,-0.06,-0.0592,-0.0582,-0.0516,-0.0485,-0.0393,-0.0348,-0.0275,-0.0212,-0.0127,-0.0102,0.0027,0.0003,0.0069,0.0123,0.0127,0.0185,0.02,0.0218,0.0236,0.0166,0.0165,0.0164,0.0163,0,-0.069,-0.0676,-0.069,-0.0679,-0.0629,-0.0614,-0.0581,-0.0498,-0.0458,-0.0372,-0.0335,-0.023,-0.0175,-0.0083,0.0038,0.0034,0.017,0.0175,0.0261,0.0263,0.0282,0.0284,0.026,0.026,0.026,0.0259,0.0259,0,-0.0746,-0.0749,-0.0719,-0.0724,-0.0714,-0.0664,-0.0636,-0.058,-0.0504,-0.0451,-0.0361,-0.0297,-0.0165,-0.0064,0.0029,0.017,0.0165,0.0266,0.0289,0.0259,0.0258,0.0245,0.0243,0.0262,0.0261,0.0261,0.026,0,-0.0808,-0.0796,-0.08,-0.0761,-0.0747,-0.0741,-0.0676,-0.0646,-0.0572,-0.0505,-0.048,-0.0343,-0.0208,-0.0076,0.0083,0.0165,0.0286,0.0337,0.0285,0.0302,0.0344,0.0338,0.0426,0.0427,0.0429,0.043,0.0431,0,-0.0838,-0.0852,-0.0834,-0.083,-0.0816,-0.0792,-0.0765,-0.069,-0.0652,-0.0522,-0.0492,-0.0349,-0.0217,0.0015,0.0172,0.0336,0.0337,0.0407,0.0402,0.0352,0.0366,0.0357,0.0349,0.0391,0.0391,0.0392,0.0392,0,-0.0879,-0.0881,-0.0883,-0.0878,-0.0867,-0.0843,-0.0802,-0.0777,-0.0678,-0.0603,-0.0471,-0.036,-0.0131,0.0067,0.0274,0.036,0.0376,0.0424,0.0403,0.0356,0.0326,0.0336,0.0329,0.0397,0.0396,0.0396,0.0396,0.0396,-0.0897,-0.0911,-0.0914,-0.0907,-0.0898,-0.0876,-0.0849,-0.0785,-0.0709,-0.0559,-0.0464,-0.0264,-0.0098,0.0219,0.0344,0.0449,0.0449,0.0476,0.0471,0.0467,0.0457,0.0432,0.0519,0.0519,0.052,0.052,0.052,0,-0.0901,-0.0916,-0.0924,-0.0921,-0.0918,-0.0903,-0.0851,-0.08,-0.0698,-0.0535,-0.038,-0.0166,0.0062,0.0224,0.0407,0.0516,0.0485,0.0517,0.046,0.0455,0.0451,0.0438,0.0496,0.0496,0.0497,0.0497,0,0,-0.0899,-0.0916,-0.0925,-0.0926,-0.0924,-0.0899,-0.0865,-0.077,-0.0645,-0.0467,-0.0302,-0.0096,0.0098,0.0223,0.0342,0.0431,0.0409,0.0426,0.0434,0.0347,0.0341,0.0418,0.0392,0,0,0,0,0]}],[{"header":{"parameterUnit":"m.s-1","parameterCategory":2,"la1":30.2991,"la2":30.254,"lo1":-89.0895,"lo2":-89.0444,"dy":0.0017,"dx":0.0017,"nx":28,"ny":28,"refTime":"2024-09-02T03:00:00:Z","depth":"4","parameterNumber":2,"parameterNumberName":"U-component_of_CURRENTS"},"data":[0,0,0,0,0,0,0,0,0,0,0,0,0,0,0,0,0,0,0,0,0,0,0,0,0,0,0,0,0,0,0,0,0,0,0,0,0,0,0,0,0,0,0,0,0,0,0,0,0,0,0,0,0,0,0,0,0,0,-0.125,-0.125,0,-0.1273,-0.1273,-0.1273,-0.132,-0.1321,-0.1322,-0.1322,-0.14,-0.1401,-0.1403,0,0,0,0,0,0,0,0,0,0,0,0,0,-0.1212,-0.1213,-0.125,-0.125,-0.125,-0.1272,-0.1273,-0.1274,-0.132,-0.1321,-0.1322,-0.1323,-0.14,-0.1401,-0.1403,0,0,0,0,0,0,0,0,0,0,0,0,0,-0.1234,-0.1214,-0.125,-0.1274,-0.1276,-0.1272,-0.1273,-0.1274,-0.132,-0.1321,-0.1322,-0.1323,-0.1399,-0.1401,-0.1403,-0.1395,0,0,-0.141,-0.1411,0,0,0,0,0,0,0,0,-0.1233,-0.1235,-0.127,-0.1272,-0.1275,-0.1292,-0.1288,-0.1316,-0.132,-0.1306,-0.1322,-0.1323,-0.1367,-0.1371,-0.1376,-0.1399,-0.1402,-0.141,-0.1411,-0.1412,-0.1413,0,0,0,0,0,0,0,-0.1231,-0.1234,-0.1261,-0.127,-0.1273,-0.1272,-0.1277,-0.1294,-0.1333,-0.1307,-0.131,-0.1308,-0.1369,-0.1374,-0.1379,-0.1404,-0.141,-0.1412,-0.1413,-0.1414,-0.1529,-0.153,0,0,0,0,0,0,-0.1224,-0.1233,-0.1261,-0.1262,-0.1253,-0.1271,-0.1277,-0.1288,-0.1332,-0.1338,-0.1307,-0.131,-0.137,-0.1376,-0.1382,-0.1445,-0.1412,-0.1414,-0.1415,-0.1527,-0.1529,-0.1531,0,0,0,0,0,0,-0.1223,-0.1227,-0.126,-0.1245,-0.1249,-0.1271,-0.1283,-0.1287,-0.1319,-0.1331,-0.1339,-0.1336,-0.1371,-0.1379,-0.1435,-0.1445,-0.1415,-0.1417,-0.1525,-0.1528,-0.153,-0.1526,0,0,0,0,0,0,-0.1222,-0.1227,-0.1238,-0.1245,-0.125,-0.1278,-0.1281,-0.1287,-0.1313,-0.1318,-0.1358,-0.1365,-0.1372,-0.1432,-0.1437,-0.1448,-0.1419,-0.1523,-0.1526,-0.1529,-0.1524,-0.1528,-0.1532,0,0,0,0,0,-0.1221,-0.1231,-0.1238,-0.1242,-0.1263,-0.1279,-0.1282,-0.1302,-0.1314,-0.1334,-0.1371,-0.1365,-0.1457,-0.1435,-0.1441,-0.1452,-0.1521,-0.1525,-0.1529,-0.1522,-0.1527,-0.1532,0,0,0,0,0,0,-0.1227,-0.1236,-0.1245,-0.126,-0.1277,-0.1287,-0.1302,-0.1314,-0.1356,-0.1371,-0.1387,-0.1397,-0.1449,-0.1461,-0.1436,-0.15,-0.1488,-0.1493,-0.1481,-0.1486,-0.149,-0.147,-0.142,0,0,0,0,0,-0.1229,-0.1243,-0.1252,-0.127,-0.1278,-0.1295,-0.1306,-0.1322,-0.1351,-0.1371,-0.1407,-0.1442,-0.1464,-0.1485,-0.1514,-0.1547,-0.1534,-0.1561,-0.1565,-0.1568,-0.156,-0.1548,-0.1548,-0.1544,-0.1544,-0.1544,0,0,-0.1236,-0.1244,-0.1252,-0.1272,-0.1288,-0.1308,-0.1307,-0.1334,-0.1355,-0.1372,-0.1436,-0.1461,-0.1479,-0.1519,-0.1542,-0.1533,-0.1568,-0.1573,-0.1575,-0.1565,-0.1552,-0.1551,-0.1551,-0.1547,-0.1546,-0.1546,0,0,-0.1249,-0.1266,-0.1278,-0.13,-0.1323,-0.133,-0.1344,-0.1376,-0.1397,-0.1453,-0.1464,-0.1497,-0.1559,-0.1557,-0.1562,-0.1607,-0.1592,-0.163,-0.1628,-0.1616,-0.1615,-0.1614,-0.1609,-0.1608,-0.1628,-0.1628,-0.1628,0,-0.1256,-0.128,-0.1286,-0.1311,-0.1331,-0.1345,-0.1371,-0.1386,-0.144,-0.1453,-0.1485,-0.1549,-0.1567,-0.157,-0.1592,-0.1609,-0.161,-0.16,-0.1617,-0.1615,-0.1614,-0.1609,-0.1607,-0.1629,-0.1629,-0.1629,-0.1629,0,-0.1274,-0.1308,-0.1323,-0.1356,-0.1375,-0.1406,-0.1421,-0.1454,-0.1488,-0.1501,-0.1544,-0.1571,-0.1603,-0.1613,-0.1618,-0.1617,-0.1623,-0.162,-0.1592,-0.1613,-0.1608,-0.1606,-0.1629,-0.1629,-0.1629,-0.1629,0,0,-0.1255,-0.1321,-0.1332,-0.1363,-0.1408,-0.1424,-0.1455,-0.1475,-0.1499,-0.1543,-0.1571,-0.1595,-0.1608,-0.1615,-0.1618,-0.1606,-0.1602,-0.1616,-0.1615,-0.1589,-0.1587,-0.1477,-0.1464,-0.1603,-0.1603,-0.1602,-0.1588,0,-0.1273,-0.1328,-0.1354,-0.1415,-0.1442,-0.1473,-0.1502,-0.1523,-0.1552,-0.1588,-0.1577,-0.1617,-0.1604,-0.1633,-0.1612,-0.1617,-0.1596,-0.1606,-0.1589,-0.1589,-0.1469,-0.1458,-0.1601,-0.1587,-0.1586,-0.1586,-0.1586,0,-0.1274,-0.1316,-0.1376,-0.1448,-0.1464,-0.1505,-0.1551,-0.1579,-0.1601,-0.1628,-0.1635,-0.1646,-0.1636,-0.1634,-0.1604,-0.1617,-0.1599,-0.1588,-0.1587,-0.1479,-0.1474,-0.1562,-0.1582,-0.1582,-0.1583,-0.1583,-0.1583,0,-0.124,-0.1327,-0.1378,-0.1408,-0.1487,-0.1523,-0.1562,-0.1596,-0.1607,-0.1653,-0.1672,-0.1667,-0.1674,-0.1649,-0.1615,-0.1626,-0.1577,-0.1589,-0.1462,-0.1456,-0.156,-0.1562,-0.1549,-0.1549,-0.1549,-0.1549,-0.1549,0,-0.1233,-0.128,-0.138,-0.1411,-0.1462,-0.1529,-0.1573,-0.1608,-0.1653,-0.1647,-0.1689,-0.1668,-0.168,-0.1647,-0.1621,-0.152,-0.1574,-0.1446,-0.1433,-0.1564,-0.1566,-0.1559,-0.1561,-0.1548,-0.1548,-0.1548,-0.1549,0,-0.1178,-0.1255,-0.1308,-0.1413,-0.1445,-0.1479,-0.1555,-0.1576,-0.1644,-0.164,-0.1654,-0.167,-0.1627,-0.161,-0.1573,-0.1509,-0.1447,-0.1394,-0.1535,-0.1533,-0.1341,-0.1343,-0.1265,-0.1261,-0.1257,-0.1254,-0.1252,0,-0.1154,-0.1181,-0.128,-0.1303,-0.1358,-0.1423,-0.1453,-0.1544,-0.1556,-0.1603,-0.1581,-0.1576,-0.1562,-0.1415,-0.1425,-0.136,-0.1333,-0.1312,-0.1317,-0.131,-0.1307,-0.1314,-0.1321,-0.1246,-0.1245,-0.1244,-0.1243,0,-0.1088,-0.113,-0.1166,-0.121,-0.1259,-0.1296,-0.1358,-0.1363,-0.1447,-0.1515,-0.1455,-0.1419,-0.1361,-0.132,-0.1274,-0.1226,-0.134,-0.1274,-0.1282,-0.1287,-0.1287,-0.1288,-0.1299,-0.1231,-0.1233,-0.1234,-0.1234,0,-0.1021,-0.1015,-0.1058,-0.1085,-0.114,-0.116,-0.1214,-0.1232,-0.1258,-0.1338,-0.1302,-0.1299,-0.133,-0.1246,-0.1198,-0.1149,-0.1135,-0.111,-0.1127,-0.1141,-0.1103,-0.1084,-0.0936,0,0,0,0,0,-0.094,-0.0915,-0.0929,-0.0954,-0.1008,-0.1039,-0.1134,-0.1196,-0.1288,-0.1207,-0.1257,-0.1194,-0.1125,-0.1125,-0.1044,-0.1144,-0.1146,-0.1047,-0.113,-0.1161,-0.1176,-0.1141,0,0,0,0,0,0,-0.0879,-0.0879,-0.0877,-0.0839,-0.0838,-0.0884,-0.0946,-0.1021,-0.0994,-0.1085,-0.1047,-0.1105,-0.105,-0.1125,-0.1004,-0.1006,-0.1034,-0.1056,-0.1053,-0.1153,-0.1166,-0.1178,-0.1147,0,0,0,0,0]},{"header":{"parameterUnit":"m.s-1","parameterCategory":2,"la1":30.2991,"la2":30.254,"lo1":-89.0895,"lo2":-89.0444,"dy":0.0017,"dx":0.0017,"nx":28,"ny":28,"refTime":"2024-09-02T03:00:00:Z","depth":"4","parameterNumber":3,"parameterNumberName":"V-component_of_CURRENTS"},"data":[0,0,0,0,0,0,0,0,0,0,0,0,0,0,0,0,0,0,0,0,0,0,0,0,0,0,0,0,0,0,0,0,0,0,0,0,0,0,0,0,0,0,0,0,0,0,0,0,0,0,0,0,0,0,0,0,0,0,-0.0313,-0.0313,0,-0.0297,-0.0296,-0.0296,-0.0282,-0.0281,-0.0281,-0.0281,-0.0229,-0.0228,-0.0227,0,0,0,0,0,0,0,0,0,0,0,0,0,-0.0295,-0.0296,-0.0313,-0.0313,-0.0312,-0.0297,-0.0296,-0.0296,-0.0282,-0.0281,-0.0281,-0.0281,-0.023,-0.0228,-0.0227,0,0,0,0,0,0,0,0,0,0,0,0,0,-0.0295,-0.0296,-0.0313,-0.0302,-0.0301,-0.0297,-0.0296,-0.0296,-0.0282,-0.0281,-0.0281,-0.028,-0.023,-0.0229,-0.0227,-0.0225,0,0,-0.0222,-0.0221,0,0,0,0,0,0,0,0,-0.0295,-0.0295,-0.0304,-0.0303,-0.0301,-0.029,-0.0271,-0.027,-0.0282,-0.029,-0.0281,-0.028,-0.0246,-0.0243,-0.0243,-0.0223,-0.0221,-0.0222,-0.0221,-0.022,-0.022,0,0,0,0,0,0,0,-0.0295,-0.0296,-0.0308,-0.0304,-0.0302,-0.0286,-0.0286,-0.0271,-0.0271,-0.0289,-0.0288,-0.0284,-0.0245,-0.0245,-0.0242,-0.022,-0.0222,-0.022,-0.0219,-0.0219,-0.0215,-0.0216,0,0,0,0,0,0,-0.0297,-0.0296,-0.0308,-0.0307,-0.0296,-0.0286,-0.0286,-0.0295,-0.0272,-0.0268,-0.0285,-0.0284,-0.0248,-0.0243,-0.024,-0.0242,-0.022,-0.0219,-0.0218,-0.0214,-0.0215,-0.0216,0,0,0,0,0,0,-0.0297,-0.0299,-0.0309,-0.0299,-0.0299,-0.0287,-0.0297,-0.0295,-0.0294,-0.0268,-0.0264,-0.0287,-0.0247,-0.0242,-0.0234,-0.024,-0.0218,-0.0216,-0.0213,-0.0215,-0.0216,-0.0244,0,0,0,0,0,0,-0.0297,-0.0299,-0.0308,-0.03,-0.03,-0.0314,-0.0297,-0.0295,-0.0292,-0.0291,-0.0268,-0.0263,-0.0246,-0.0237,-0.0233,-0.0237,-0.0215,-0.0212,-0.0214,-0.0215,-0.0242,-0.0246,-0.0249,0,0,0,0,0,-0.0296,-0.0314,-0.0309,-0.031,-0.0312,-0.0314,-0.0313,-0.0303,-0.0293,-0.03,-0.0284,-0.0264,-0.0245,-0.0236,-0.0231,-0.0235,-0.0211,-0.0213,-0.0215,-0.024,-0.0245,-0.0249,0,0,0,0,0,0,-0.0314,-0.0314,-0.0308,-0.0325,-0.0321,-0.0311,-0.0316,-0.0306,-0.03,-0.0296,-0.0271,-0.0266,-0.0265,-0.0249,-0.0241,-0.0242,-0.0226,-0.0227,-0.0247,-0.0251,-0.0255,-0.0241,-0.0214,0,0,0,0,0,-0.0321,-0.0333,-0.0327,-0.034,-0.034,-0.0327,-0.0326,-0.0318,-0.031,-0.0307,-0.0294,-0.028,-0.027,-0.026,-0.0253,-0.0247,-0.0202,-0.025,-0.0253,-0.0257,-0.0243,-0.0179,-0.0175,-0.0223,-0.0223,-0.0223,0,0,-0.0329,-0.0332,-0.0338,-0.0344,-0.034,-0.0345,-0.0327,-0.0328,-0.033,-0.0301,-0.0306,-0.0294,-0.0274,-0.0273,-0.0271,-0.0258,-0.0223,-0.0259,-0.0262,-0.0246,-0.018,-0.0175,-0.0171,-0.0224,-0.0224,-0.0224,0,0,-0.0353,-0.0356,-0.0373,-0.0371,-0.0367,-0.036,-0.0361,-0.0355,-0.0352,-0.0354,-0.0334,-0.0319,-0.0316,-0.0293,-0.0281,-0.03,-0.025,-0.0311,-0.0309,-0.0247,-0.0242,-0.0236,-0.0179,-0.0168,-0.0306,-0.0307,-0.0307,0,-0.0363,-0.0383,-0.0377,-0.0389,-0.0386,-0.0369,-0.0378,-0.0374,-0.0367,-0.0356,-0.0362,-0.0333,-0.032,-0.0291,-0.0305,-0.0305,-0.0265,-0.0291,-0.0249,-0.0242,-0.0236,-0.0179,-0.0166,-0.0308,-0.0308,-0.0308,-0.0308,0,-0.0395,-0.0408,-0.0417,-0.0425,-0.0423,-0.0429,-0.0417,-0.0415,-0.0408,-0.0394,-0.0376,-0.0357,-0.0328,-0.0334,-0.0326,-0.0284,-0.0269,-0.0264,-0.023,-0.0232,-0.0173,-0.0159,-0.031,-0.031,-0.0309,-0.0309,0,0,-0.0428,-0.0438,-0.0442,-0.0445,-0.044,-0.0441,-0.0439,-0.0425,-0.0406,-0.0405,-0.0374,-0.0369,-0.0342,-0.0327,-0.0309,-0.0264,-0.0197,-0.025,-0.0246,-0.0181,-0.0059,-0.0086,-0.0073,-0.0183,-0.0181,-0.0179,-0.0037,0,-0.0454,-0.0483,-0.0477,-0.0493,-0.0502,-0.0476,-0.047,-0.045,-0.0428,-0.0397,-0.0361,-0.0335,-0.0343,-0.0322,-0.0279,-0.0218,-0.0163,-0.0236,-0.0077,-0.0072,-0.0084,-0.0059,-0.0172,-0.0026,-0.0023,-0.0021,-0.0019,0,-0.0491,-0.0502,-0.0528,-0.0516,-0.0515,-0.052,-0.0486,-0.0478,-0.0422,-0.0396,-0.035,-0.0317,-0.0255,-0.0262,-0.0138,-0.0185,-0.0122,-0.0076,-0.0069,-0.0069,-0.0073,-0.0023,0.0006,0.0004,0.0002,0.0,-0.0001,0,-0.0523,-0.0536,-0.0558,-0.0559,-0.0546,-0.0544,-0.0531,-0.0483,-0.0462,-0.039,-0.0355,-0.0275,-0.0231,-0.0143,-0.0068,-0.0089,0.0073,0.0065,0.0107,0.0106,0.0101,0.0094,0.0172,0.0172,0.0171,0.0171,0.0171,0,-0.0558,-0.0574,-0.0579,-0.0592,-0.0597,-0.0574,-0.0559,-0.0527,-0.0466,-0.0425,-0.0361,-0.0304,-0.02,-0.0107,-0.0036,0.0074,0.0108,0.0124,0.0147,0.0082,0.0071,0.0111,0.0102,0.0176,0.0175,0.0174,0.0173,0,-0.0595,-0.0604,-0.0628,-0.0623,-0.0621,-0.0629,-0.0595,-0.0571,-0.0512,-0.045,-0.0426,-0.0311,-0.0187,-0.0085,0.0073,0.0113,0.0222,0.0254,0.0183,0.0197,0.0211,0.0198,0.0335,0.0335,0.0336,0.0336,0.0336,0,-0.0614,-0.0635,-0.0657,-0.0669,-0.0674,-0.0672,-0.0661,-0.0607,-0.0572,-0.0454,-0.0421,-0.0291,-0.0209,0.0006,0.0099,0.0258,0.0259,0.0322,0.026,0.0222,0.0231,0.0218,0.0206,0.0337,0.0337,0.0337,0.0337,0,-0.0639,-0.0659,-0.0677,-0.0702,-0.0713,-0.0708,-0.0687,-0.0656,-0.0574,-0.0529,-0.0384,-0.0265,-0.0124,0.0017,0.0136,0.0239,0.0284,0.0326,0.0325,0.0267,0.0226,0.0231,0.0219,0.0338,0.0338,0.0338,0.0338,0,-0.065,-0.0672,-0.07,-0.0716,-0.0736,-0.0723,-0.0709,-0.0637,-0.0589,-0.0452,-0.0406,-0.0244,-0.0146,0.0009,0.0117,0.0215,0.023,0.025,0.0253,0.0253,0.0163,0.0094,0.0204,0,0,0,0,0,-0.0649,-0.0669,-0.0695,-0.0715,-0.0738,-0.0742,-0.0708,-0.068,-0.0603,-0.0501,-0.0443,-0.0305,-0.0111,-0.0028,0.007,0.0092,0.022,0.0205,0.0238,0.0344,0.0343,0.0246,0,0,0,0,0,0,-0.0646,-0.0682,-0.0694,-0.0708,-0.072,-0.0732,-0.071,-0.0661,-0.0588,-0.0499,-0.0394,-0.0309,-0.013,-0.0174,0.0061,0.0091,0.012,0.03,0.0301,0.0345,0.0344,0.0343,0.0242,0,0,0,0,0]}]]